EXPRESS AMU-7 (50001 NORAD) Tracking and Keplerian Element Data
This shows tracking and keplerian element data for the satellite.
Feedback or suggestion? Click here.
Element | Value |
Catalog | 50001 |
Name | EXPRESS AMU-7 |
Epoch Orbit | 159 |
Epoch Day | 137.54609207 |
Epoch Year | 2022 |
RAAN | 276.2394 |
Inclination | 0.0308 |
Eccentricity | 4.78E-05 |
Argument of Perigee | 203.1516 |
Mean Anonmoly | 97.4339 |
Mean Motion | 1.00270643 |
Decay Rate | -2.37E-06 |
L1 | 1 50001U 21123A 22137.54609207 -.00000237 00000+0 00000+0 0 9994 |
L2 | 2 50001 0.0308 276.2394 0000478 203.1516 97.4339 1.00270643 1592 |
Live tracking and technical data element details for EXPRESS AMU-7 (NORAD 50001). EXPRESS AMU-7 can be tracked NOW for your location showing map with azimuth and elevation plus other details from your city location.
Track the satellite on the map from your city or location and see movement details for azimuth, elevation, latitude, longitude, range, height, and movement on the map or in text.
IsCatalogInMostPopularTable: catalog: 50001, numindb: 22
Update: records affected: 1
GetName: 50001 EXPRESS AMU-7
Hit Count: updated at: Mon, 23 May 2022 20:30:18 GMT